| time (UTC) | temp C | wind direction | speed KPH | gust KPH | rain 1hr cm | rain 24hr cm | rain mn cm | humidity % | barometer mb |
| 20260507114319 | -1 | 119 | 0.0 | 0.0 | 0.00 | 0.00 | 0.00 | 66 | 1014.6 |
| 20260507113828 | -1 | 120 | 0.0 | 0.0 | 0.00 | 0.00 | 0.00 | 66 | 1014.6 |
| 20260507113320 | -1 | 119 | 0.0 | 0.0 | 0.00 | 0.00 | 0.00 | 65 | 1014.6 |
| 20260507112827 | -1 | 119 | 0.0 | 0.0 | 0.00 | 0.00 | 0.00 | 65 | 1014.6 |
| 20260507112334 | -1 | 119 | 0.0 | 0.0 | 0.00 | 0.00 | 0.00 | 65 | 1014.5 |
| 20260507111822 | -1 | 119 | 0.0 | 0.0 | 0.00 | 0.00 | 0.00 | 65 | 1014.5 |
| 20260507111328 | -1 | 120 | 0.0 | 0.0 | 0.00 | 0.00 | 0.00 | 65 | 1014.5 |
| 20260507110838 | 0 | 119 | 0.0 | 0.0 | 0.00 | 0.00 | 0.00 | 65 | 1014.5 |
| 20260507110325 | 0 | 120 | 0.0 | 0.0 | 0.00 | 0.00 | 0.00 | 64 | 1014.5 |
| 20260507105832 | 0 | 120 | 0.0 | 0.0 | 0.00 | 0.00 | 0.00 | 64 | 1014.5 |
| 20260507105339 | 0 | 119 | 0.0 | 0.0 | 0.00 | 0.00 | 0.00 | 63 | 1014.6 |
| 20260507104825 | 0 | 119 | 0.0 | 0.0 | 0.00 | 0.00 | 0.00 | 64 | 1014.6 |
| 20260507104337 | 0 | 120 | 0.0 | 0.0 | 0.00 | 0.00 | 0.00 | 63 | 1014.6 |
| 20260507103823 | 0 | 119 | 0.0 | 0.0 | 0.00 | 0.00 | 0.00 | 63 | 1014.7 |
| 20260507103331 | 0 | 119 | 0.0 | 0.0 | 0.00 | 0.00 | 0.00 | 62 | 1014.7 |
| 20260507102838 | 0 | 120 | 0.0 | 0.0 | 0.00 | 0.00 | 0.00 | 62 | 1014.7 |
| 20260507102323 | 0 | 119 | 0.0 | 0.0 | 0.00 | 0.00 | 0.00 | 62 | 1014.7 |
| 20260507101829 | 0 | 119 | 0.0 | 0.0 | 0.00 | 0.00 | 0.00 | 61 | 1014.7 |
| 20260507101335 | 0 | 119 | 0.0 | 1.6 | 0.00 | 0.00 | 0.00 | 61 | 1014.7 |
| 20260507100821 | 0 | 119 | 0.0 | 1.6 | 0.00 | 0.00 | 0.00 | 62 | 1015.6 |
| 20260507100327 | 0 | 120 | 0.0 | 1.6 | 0.00 | 0.00 | 0.00 | 62 | 1015.6 |
| 20260507095834 | 0 | 120 | 0.0 | 0.0 | 0.00 | 0.00 | 0.00 | 62 | 1015.6 |
| 20260507095326 | 0 | 120 | 0.0 | 0.0 | 0.00 | 0.00 | 0.00 | 61 | 1015.5 |
| 20260507094833 | 0 | 119 | 0.0 | 0.0 | 0.00 | 0.00 | 0.00 | 61 | 1015.5 |
| 20260507094319 | 0 | 120 | 0.0 | 0.0 | 0.00 | 0.00 | 0.00 | 61 | 1015.6 |
| 20260507093826 | 0 | 119 | 0.0 | 0.0 | 0.00 | 0.00 | 0.00 | 61 | 1015.6 |
| 20260507093331 | 0 | 119 | 0.0 | 0.0 | 0.00 | 0.00 | 0.00 | 60 | 1015.6 |
| 20260507092819 | 0 | 119 | 0.0 | 0.0 | 0.00 | 0.00 | 0.00 | 60 | 1015.6 |
| 20260507092328 | 0 | 119 | 0.0 | 0.0 | 0.00 | 0.00 | 0.00 | 60 | 1015.6 |
| 20260507091834 | 0 | 119 | 0.0 | 0.0 | 0.00 | 0.00 | 0.00 | 60 | 1015.6 |
| 20260507091320 | 0 | 120 | 0.0 | 0.0 | 0.00 | 0.00 | 0.00 | 60 | 1015.7 |
| 20260507090834 | 0 | 120 | 0.0 | 0.0 | 0.00 | 0.00 | 0.00 | 60 | 1014.8 |
| 20260507090322 | 0 | 119 | 0.0 | 1.6 | 0.00 | 0.00 | 0.00 | 59 | 1014.8 |
| 20260507085829 | 0 | 119 | 0.0 | 1.6 | 0.00 | 0.00 | 0.00 | 59 | 1014.8 |
| 20260507085337 | 0 | 119 | 0.0 | 0.0 | 0.00 | 0.00 | 0.00 | 59 | 1014.8 |
| 20260507084825 | 0 | 120 | 0.0 | 1.6 | 0.00 | 0.00 | 0.00 | 58 | 1014.8 |
| 20260507084331 | 0 | 120 | 0.0 | 1.6 | 0.00 | 0.00 | 0.00 | 58 | 1014.8 |
| 20260507083818 | 0 | 119 | 0.0 | 0.0 | 0.00 | 0.00 | 0.00 | 58 | 1014.7 |
| 20260507083327 | 0 | 119 | 0.0 | 0.0 | 0.00 | 0.00 | 0.00 | 58 | 1014.7 |
| 20260507082835 | 0 | 120 | 0.0 | 0.0 | 0.00 | 0.00 | 0.00 | 58 | 1014.7 |
| 20260507082325 | 0 | 119 | 0.0 | 0.0 | 0.00 | 0.00 | 0.00 | 57 | 1014.6 |
| 20260507081830 | 0 | 119 | 0.0 | 0.0 | 0.00 | 0.00 | 0.00 | 57 | 1014.6 |
| 20260507081339 | 0 | 119 | 0.0 | 0.0 | 0.00 | 0.00 | 0.00 | 56 | 1014.6 |
| 20260507080826 | 0 | 119 | 0.0 | 0.0 | 0.00 | 0.00 | 0.00 | 56 | 1014.6 |
| 20260507080333 | 1 | 119 | 0.0 | 1.6 | 0.00 | 0.00 | 0.00 | 56 | 1014.6 |
| 20260507075818 | 1 | 119 | 0.0 | 1.6 | 0.00 | 0.00 | 0.00 | 56 | 1014.7 |
| 20260507075328 | 1 | 119 | 0.0 | 0.0 | 0.00 | 0.00 | 0.00 | 55 | 1014.7 |
| 20260507074833 | 1 | 119 | 0.0 | 1.6 | 0.00 | 0.00 | 0.00 | 55 | 1014.7 |
| 20260507074318 | 1 | 119 | 0.0 | 1.6 | 0.00 | 0.00 | 0.00 | 55 | 1014.7 |
| 20260507073828 | 1 | 119 | 0.0 | 1.6 | 0.00 | 0.00 | 0.00 | 54 | 1014.7 |
| 20260507073318 | 1 | 119 | 0.0 | 3.2 | 0.00 | 0.00 | 0.00 | 54 | 1014.7 |
| 20260507072828 | 1 | 120 | 1.6 | 3.2 | 0.00 | 0.00 | 0.00 | 53 | 1014.7 |
| 20260507072334 | 1 | 120 | 1.6 | 3.2 | 0.00 | 0.00 | 0.00 | 53 | 1014.7 |
| 20260507071821 | 1 | 119 | 1.6 | 3.2 | 0.00 | 0.00 | 0.00 | 53 | 1014.7 |
| 20260507071329 | 1 | 119 | 1.6 | 3.2 | 0.00 | 0.00 | 0.00 | 52 | 1014.7 |
| 20260507070836 | 1 | 120 | 1.6 | 3.2 | 0.00 | 0.00 | 0.00 | 52 | 1015.7 |
| 20260507070324 | 1 | 119 | 1.6 | 3.2 | 0.00 | 0.00 | 0.00 | 52 | 1015.7 |
| 20260507065831 | 2 | 119 | 1.6 | 3.2 | 0.00 | 0.00 | 0.00 | 51 | 1015.7 |
| 20260507065338 | 2 | 120 | 1.6 | 3.2 | 0.00 | 0.00 | 0.00 | 51 | 1015.7 |
| 20260507064829 | 2 | 119 | 1.6 | 3.2 | 0.00 | 0.00 | 0.00 | 51 | 1015.7 |
| 20260507064337 | 2 | 119 | 1.6 | 3.2 | 0.00 | 0.00 | 0.00 | 50 | 1015.7 |
| 20260507063824 | 2 | 120 | 1.6 | 3.2 | 0.00 | 0.00 | 0.00 | 50 | 1015.8 |
| 20260507063330 | 2 | 120 | 1.6 | 3.2 | 0.00 | 0.00 | 0.00 | 49 | 1015.8 |
| 20260507062838 | 2 | 119 | 3.2 | 4.8 | 0.00 | 0.00 | 0.00 | 49 | 1015.8 |
| 20260507062324 | 2 | 119 | 1.6 | 4.8 | 0.00 | 0.00 | 0.00 | 49 | 1015.8 |
| 20260507061832 | 2 | 120 | 3.2 | 4.8 | 0.00 | 0.00 | 0.00 | 48 | 1015.8 |
| 20260507061318 | 2 | 119 | 3.2 | 4.8 | 0.00 | 0.00 | 0.00 | 48 | 1015.0 |
| 20260507060828 | 2 | 119 | 1.6 | 4.8 | 0.00 | 0.00 | 0.00 | 48 | 1015.0 |
| 20260507060335 | 3 | 119 | 3.2 | 4.8 | 0.00 | 0.00 | 0.00 | 48 | 1015.0 |
| 20260507055827 | 3 | 119 | 3.2 | 4.8 | 0.00 | 0.00 | 0.00 | 47 | 1015.0 |
| 20260507055333 | 3 | 120 | 3.2 | 6.4 | 0.00 | 0.00 | 0.00 | 47 | 1015.0 |
| 20260507054820 | 3 | 119 | 3.2 | 6.4 | 0.00 | 0.00 | 0.00 | 47 | 1015.0 |
| 20260507054328 | 3 | 133 | 3.2 | 4.8 | 0.00 | 0.00 | 0.00 | 46 | 1015.0 |
| 20260507053836 | 3 | 144 | 1.6 | 3.2 | 0.00 | 0.00 | 0.00 | 46 | 1015.9 |
| 20260507053324 | 3 | 144 | 1.6 | 3.2 | 0.00 | 0.00 | 0.00 | 46 | 1015.9 |
| 20260507052830 | 3 | 103 | 3.2 | 8.0 | 0.00 | 0.00 | 0.00 | 45 | 1015.9 |
| 20260507052338 | 3 | 121 | 4.8 | 9.7 | 0.00 | 0.00 | 0.00 | 45 | 1015.9 |
| 20260507051826 | 3 | 127 | 3.2 | 9.7 | 0.00 | 0.00 | 0.00 | 45 | 1015.9 |
| 20260507051337 | 3 | 110 | 4.8 | 6.4 | 0.00 | 0.00 | 0.00 | 45 | 1015.9 |
| 20260507050824 | 3 | 103 | 3.2 | 6.4 | 0.00 | 0.00 | 0.00 | 44 | 1015.3 |
| 20260507050330 | 3 | 123 | 3.2 | 6.4 | 0.00 | 0.00 | 0.00 | 44 | 1015.3 |
| 20260507045836 | 3 | 97 | 3.2 | 6.4 | 0.00 | 0.00 | 0.00 | 44 | 1015.3 |
| 20260507045321 | 4 | 113 | 3.2 | 8.0 | 0.00 | 0.00 | 0.00 | 43 | 1015.4 |
| 20260507044829 | 4 | 116 | 3.2 | 8.0 | 0.00 | 0.00 | 0.00 | 43 | 1015.4 |
| 20260507044336 | 4 | 103 | 4.8 | 8.0 | 0.00 | 0.00 | 0.00 | 42 | 1015.4 |
| 20260507043821 | 4 | 112 | 4.8 | 8.0 | 0.00 | 0.00 | 0.00 | 42 | 1016.2 |
| 20260507043329 | 4 | 97 | 4.8 | 8.0 | 0.00 | 0.00 | 0.00 | 41 | 1016.2 |
| 20260507042835 | 5 | 110 | 3.2 | 4.8 | 0.00 | 0.00 | 0.00 | 41 | 1016.2 |
| 20260507042326 | 5 | 93 | 3.2 | 9.7 | 0.00 | 0.00 | 0.00 | 41 | 1016.3 |
| 20260507041832 | 5 | 112 | 3.2 | 9.7 | 0.00 | 0.00 | 0.00 | 40 | 1016.3 |
| 20260507041337 | 5 | 103 | 3.2 | 9.7 | 0.00 | 0.00 | 0.00 | 39 | 1016.3 |
| 20260507040826 | 5 | 72 | 4.8 | 9.7 | 0.00 | 0.00 | 0.00 | 39 | 1016.3 |
| 20260507040332 | 5 | 93 | 3.2 | 9.7 | 0.00 | 0.00 | 0.00 | 38 | 1016.3 |
| 20260507035820 | 5 | 59 | 3.2 | 6.4 | 0.00 | 0.00 | 0.00 | 38 | 1016.4 |
| 20260507035326 | 5 | 49 | 3.2 | 6.4 | 0.00 | 0.00 | 0.00 | 37 | 1016.4 |
| 20260507034834 | 5 | 61 | 1.6 | 4.8 | 0.00 | 0.00 | 0.00 | 37 | 1016.4 |
| 20260507034320 | 6 | 32 | 1.6 | 6.4 | 0.00 | 0.00 | 0.00 | 37 | 1016.4 |
| 20260507033833 | 6 | 61 | 3.2 | 6.4 | 0.00 | 0.00 | 0.00 | 37 | 1016.4 |
| 20260507033321 | 6 | 48 | 3.2 | 4.8 | 0.00 | 0.00 | 0.00 | 37 | 1016.4 |
| 20260507032829 | 6 | 48 | 1.6 | 3.2 | 0.00 | 0.00 | 0.00 | 36 | 1016.4 |
| 20260507032335 | 6 | 48 | 1.6 | 3.2 | 0.00 | 0.00 | 0.00 | 36 | 1016.4 |
| 20260507031820 | 6 | 48 | 1.6 | 4.8 | 0.00 | 0.00 | 0.00 | 36 | 1016.4 |
| 20260507031330 | 6 | 48 | 3.2 | 8.0 | 0.00 | 0.00 | 0.00 | 35 | 1016.4 |
| 20260507030837 | 6 | 49 | 3.2 | 8.0 | 0.00 | 0.00 | 0.00 | 35 | 1015.7 |
| 20260507030325 | 6 | 35 | 3.2 | 6.4 | 0.00 | 0.00 | 0.00 | 35 | 1015.7 |
| 20260507025830 | 6 | 45 | 1.6 | 6.4 | 0.00 | 0.00 | 0.00 | 34 | 1015.7 |
| 20260507025321 | 7 | 49 | 1.6 | 4.8 | 0.00 | 0.00 | 0.00 | 34 | 1016.5 |
| 20260507024828 | 7 | 51 | 3.2 | 4.8 | 0.00 | 0.00 | 0.00 | 34 | 1016.5 |
| 20260507024335 | 7 | 51 | 3.2 | 4.8 | 0.00 | 0.00 | 0.00 | 33 | 1016.5 |
| 20260507023823 | 7 | 51 | 3.2 | 4.8 | 0.00 | 0.00 | 0.00 | 33 | 1016.5 |
| 20260507023330 | 7 | 51 | 1.6 | 3.2 | 0.00 | 0.00 | 0.00 | 32 | 1016.5 |
| 20260507022836 | 7 | 51 | 1.6 | 3.2 | 0.00 | 0.00 | 0.00 | 32 | 1016.5 |
| 20260507022323 | 7 | 49 | 0.0 | 3.2 | 0.00 | 0.00 | 0.00 | 32 | 1016.4 |
| 20260507021830 | 7 | 51 | 1.6 | 3.2 | 0.00 | 0.00 | 0.00 | 31 | 1016.4 |
| 20260507021338 | 8 | 51 | 1.6 | 3.2 | 0.00 | 0.00 | 0.00 | 31 | 1016.4 |
| 20260507020826 | 8 | 51 | 0.0 | 3.2 | 0.00 | 0.00 | 0.00 | 31 | 1015.9 |
| 20260507020337 | 8 | 51 | 1.6 | 3.2 | 0.00 | 0.00 | 0.00 | 30 | 1015.9 |
| 20260507015825 | 8 | 51 | 1.6 | 3.2 | 0.00 | 0.00 | 0.00 | 29 | 1015.8 |
| 20260507015332 | 8 | 51 | 1.6 | 3.2 | 0.00 | 0.00 | 0.00 | 29 | 1015.8 |
| 20260507014820 | 8 | 45 | 0.0 | 4.8 | 0.00 | 0.00 | 0.00 | 28 | 1015.8 |
| 20260507014328 | 8 | 42 | 3.2 | 8.0 | 0.00 | 0.00 | 0.00 | 28 | 1015.8 |
| 20260507013836 | 8 | 10 | 1.6 | 11.3 | 0.00 | 0.00 | 0.00 | 28 | 1015.8 |
| 20260507013323 | 9 | 30 | 6.4 | 11.3 | 0.00 | 0.00 | 0.00 | 27 | 1015.8 |
| 20260507012829 | 9 | 37 | 3.2 | 12.9 | 0.00 | 0.00 | 0.00 | 28 | 1015.8 |
| 20260507012337 | 9 | 27 | 3.2 | 12.9 | 0.00 | 0.00 | 0.00 | 28 | 1015.8 |
| 20260507011828 | 9 | 35 | 4.8 | 9.7 | 0.00 | 0.00 | 0.00 | 27 | 1015.8 |
| 20260507011335 | 9 | 21 | 3.2 | 8.0 | 0.00 | 0.00 | 0.00 | 27 | 1015.8 |
| 20260507010822 | 10 | 48 | 3.2 | 12.9 | 0.00 | 0.00 | 0.00 | 27 | 1016.0 |
| 20260507010329 | 10 | 354 | 3.2 | 12.9 | 0.00 | 0.00 | 0.00 | 27 | 1016.0 |
| 20260507005836 | 10 | 360 | 4.8 | 11.3 | 0.00 | 0.00 | 0.00 | 26 | 1016.0 |
| 20260507005323 | 10 | 61 | 1.6 | 12.9 | 0.00 | 0.00 | 0.00 | 26 | 1015.9 |
| 20260507004829 | 10 | 342 | 8.0 | 12.9 | 0.00 | 0.00 | 0.00 | 26 | 1015.9 |
| 20260507004336 | 10 | 258 | 6.4 | 12.9 | 0.00 | 0.00 | 0.00 | 26 | 1015.9 |
| 20260507003822 | 10 | 330 | 3.2 | 11.3 | 0.00 | 0.00 | 0.00 | 26 | 1016.0 |
| 20260507003329 | 10 | 306 | 3.2 | 11.3 | 0.00 | 0.00 | 0.00 | 26 | 1016.0 |
| 20260507002819 | 10 | 336 | 3.2 | 14.5 | 0.00 | 0.00 | 0.00 | 26 | 1016.1 |
| 20260507002329 | 10 | 298 | 9.7 | 14.5 | 0.00 | 0.00 | 0.00 | 26 | 1016.1 |
| 20260507001836 | 10 | 34 | 4.8 | 19.3 | 0.00 | 0.00 | 0.00 | 26 | 1016.1 |
| 20260507001322 | 10 | 320 | 3.2 | 19.3 | 0.00 | 0.00 | 0.00 | 25 | 1016.1 |
| 20260507000831 | 11 | 208 | 3.2 | 11.3 | 0.00 | 0.00 | 0.00 | 25 | 1016.1 |
| 20260507000339 | 11 | 350 | 6.4 | 17.7 | 0.00 | 0.00 | 0.00 | 26 | 1016.1 |
| 20260506235826 | 11 | 318 | 9.7 | 17.7 | 0.00 | 0.00 | 0.00 | 25 | 1016.1 |
| 20260506235332 | 11 | 308 | 6.4 | 17.7 | 0.00 | 0.00 | 0.00 | 24 | 1016.2 |
| 20260506234823 | 11 | 144 | 3.2 | 17.7 | 0.00 | 0.00 | 0.00 | 25 | 1016.2 |
| 20260506234333 | 11 | 328 | 4.8 | 16.1 | 0.00 | 0.00 | 0.00 | 25 | 1016.2 |
| 20260506233818 | 11 | 302 | 4.8 | 16.1 | 0.00 | 0.00 | 0.00 | 25 | 1016.4 |
| 20260506233324 | 11 | 356 | 4.8 | 16.1 | 0.00 | 0.00 | 0.00 | 24 | 1016.4 |
| 20260506232832 | 11 | 229 | 1.6 | 16.1 | 0.00 | 0.00 | 0.00 | 25 | 1016.4 |
| 20260506232318 | 11 | 343 | 8.0 | 22.5 | 0.00 | 0.00 | 0.00 | 25 | 1016.5 |
| 20260506231826 | 11 | 313 | 6.4 | 22.5 | 0.00 | 0.00 | 0.00 | 25 | 1016.5 |
| 20260506231334 | 11 | 313 | 9.7 | 16.1 | 0.00 | 0.00 | 0.00 | 26 | 1016.5 |
| 20260506230819 | 11 | 258 | 6.4 | 16.1 | 0.00 | 0.00 | 0.00 | 26 | 1016.8 |
| 20260506230327 | 10 | 309 | 6.4 | 19.3 | 0.00 | 0.00 | 0.00 | 26 | 1016.8 |
| 20260506225819 | 10 | 326 | 12.9 | 19.3 | 0.00 | 0.00 | 0.00 | 25 | 1016.9 |
| 20260506225324 | 10 | 359 | 8.0 | 20.9 | 0.00 | 0.00 | 0.00 | 26 | 1016.9 |
| 20260506224831 | 10 | 294 | 6.4 | 20.9 | 0.00 | 0.00 | 0.00 | 25 | 1016.9 |
| 20260506224319 | 10 | 282 | 8.0 | 19.3 | 0.00 | 0.00 | 0.00 | 26 | 1017.0 |
| 20260506223826 | 10 | 343 | 12.9 | 19.3 | 0.00 | 0.00 | 0.00 | 26 | 1017.0 |
| 20260506223332 | 10 | 349 | 3.2 | 20.9 | 0.00 | 0.00 | 0.00 | 26 | 1017.0 |
| 20260506222819 | 10 | 326 | 3.2 | 20.9 | 0.00 | 0.00 | 0.00 | 26 | 1016.9 |
| 20260506222326 | 10 | 233 | 6.4 | 17.7 | 0.00 | 0.00 | 0.00 | 25 | 1016.9 |
| 20260506221834 | 11 | 237 | 6.4 | 19.3 | 0.00 | 0.00 | 0.00 | 25 | 1016.9 |
| 20260506221320 | 11 | 305 | 9.7 | 24.1 | 0.00 | 0.00 | 0.00 | 25 | 1017.2 |
| 20260506220832 | 11 | 280 | 3.2 | 24.1 | 0.00 | 0.00 | 0.00 | 26 | 1017.2 |
| 20260506220336 | 11 | 305 | 6.4 | 19.3 | 0.00 | 0.00 | 0.00 | 25 | 1017.2 |
| 20260506215822 | 11 | 357 | 11.3 | 19.3 | 0.00 | 0.00 | 0.00 | 26 | 1017.3 |
| 20260506215330 | 11 | 291 | 6.4 | 19.3 | 0.00 | 0.00 | 0.00 | 25 | 1017.3 |
| 20260506214832 | 11 | 339 | 8.0 | 19.3 | 0.00 | 0.00 | 0.00 | 25 | 1017.3 |
| 20260506214340 | 10 | 267 | 3.2 | 16.1 | 0.00 | 0.00 | 0.00 | 26 | 1017.3 |
| 20260506213819 | 10 | 257 | 6.4 | 19.3 | 0.00 | 0.00 | 0.00 | 27 | 1017.6 |
| 20260506213325 | 10 | 295 | 12.9 | 20.9 | 0.00 | 0.00 | 0.00 | 26 | 1017.6 |
| 20260506212832 | 10 | 305 | 8.0 | 20.9 | 0.00 | 0.00 | 0.00 | 27 | 1017.6 |
| 20260506212320 | 10 | 295 | 9.7 | 17.7 | 0.00 | 0.00 | 0.00 | 27 | 1017.9 |
| 20260506211827 | 10 | 289 | 9.7 | 22.5 | 0.00 | 0.00 | 0.00 | 26 | 1017.9 |
| 20260506211318 | 10 | 349 | 11.3 | 22.5 | 0.00 | 0.00 | 0.00 | 27 | 1018.0 |
| 20260506210826 | 10 | 274 | 4.8 | 16.1 | 0.00 | 0.00 | 0.00 | 27 | 1018.0 |
| 20260506210334 | 10 | 278 | 9.7 | 12.9 | 0.00 | 0.00 | 0.00 | 28 | 1018.0 |
| 20260506205819 | 10 | 306 | 6.4 | 12.9 | 0.00 | 0.00 | 0.00 | 28 | 1018.3 |
| 20260506205328 | 10 | 299 | 3.2 | 19.3 | 0.00 | 0.00 | 0.00 | 28 | 1018.3 |
| 20260506204834 | 10 | 332 | 9.7 | 19.3 | 0.00 | 0.00 | 0.00 | 27 | 1018.3 |
| 20260506204319 | 10 | 196 | 1.6 | 19.3 | 0.00 | 0.00 | 0.00 | 28 | 1018.4 |
| 20260506203827 | 10 | 250 | 9.7 | 19.3 | 0.00 | 0.00 | 0.00 | 27 | 1018.4 |
| 20260506203335 | 10 | 354 | 4.8 | 14.5 | 0.00 | 0.00 | 0.00 | 29 | 1018.4 |
| 20260506202827 | 10 | 308 | 3.2 | 22.5 | 0.00 | 0.00 | 0.00 | 29 | 1018.4 |
| 20260506202334 | 9 | 336 | 14.5 | 25.7 | 0.00 | 0.00 | 0.00 | 28 | 1018.7 |
| 20260506201821 | 9 | 284 | 11.3 | 25.7 | 0.00 | 0.00 | 0.00 | 28 | 1018.7 |
| 20260506201328 | 9 | 285 | 6.4 | 12.9 | 0.00 | 0.00 | 0.00 | 30 | 1018.7 |
| 20260506200836 | 9 | 264 | 3.2 | 19.3 | 0.00 | 0.00 | 0.00 | 30 | 1018.7 |
| 20260506200323 | 9 | 322 | 9.7 | 17.7 | 0.00 | 0.00 | 0.00 | 30 | 1018.7 |
| 20260506195830 | 8 | 320 | 3.2 | 12.9 | 0.00 | 0.00 | 0.00 | 33 | 1018.7 |
| 20260506195335 | 8 | 352 | 3.2 | 19.3 | 0.00 | 0.00 | 0.00 | 31 | 1019.0 |
| 20260506194822 | 8 | 318 | 9.7 | 19.3 | 0.00 | 0.00 | 0.00 | 31 | 1019.0 |
| 20260506194329 | 9 | 323 | 9.7 | 14.5 | 0.00 | 0.00 | 0.00 | 30 | 1019.0 |
| 20260506193819 | 9 | 311 | 9.7 | 14.5 | 0.00 | 0.00 | 0.00 | 31 | 1019.1 |
| 20260506193326 | 8 | 342 | 3.2 | 14.5 | 0.00 | 0.00 | 0.00 | 32 | 1019.1 |
| 20260506192833 | 8 | 322 | 1.6 | 12.9 | 0.00 | 0.00 | 0.00 | 33 | 1019.1 |
| 20260506192319 | 8 | 347 | 4.8 | 16.1 | 0.00 | 0.00 | 0.00 | 32 | 1019.2 |
| 20260506191829 | 8 | 75 | 6.4 | 16.1 | 0.00 | 0.00 | 0.00 | 32 | 1019.2 |
| 20260506191337 | 9 | 52 | 6.4 | 19.3 | 0.00 | 0.00 | 0.00 | 32 | 1019.2 |
| 20260506190825 | 9 | 233 | 9.7 | 19.3 | 0.00 | 0.00 | 0.00 | 33 | 1019.4 |
| 20260506190331 | 8 | 292 | 9.7 | 12.9 | 0.00 | 0.00 | 0.00 | 33 | 1019.4 |
| 20260506185838 | 8 | 27 | 8.0 | 11.3 | 0.00 | 0.00 | 0.00 | 32 | 1019.4 |
| 20260506185329 | 8 | 130 | 3.2 | 17.7 | 0.00 | 0.00 | 0.00 | 33 | 1019.5 |
| 20260506184836 | 8 | 8 | 1.6 | 17.7 | 0.00 | 0.00 | 0.00 | 36 | 1019.5 |
| 20260506184321 | 8 | 319 | 8.0 | 12.9 | 0.00 | 0.00 | 0.00 | 35 | 1020.1 |
| 20260506183828 | 8 | 357 | 6.4 | 12.9 | 0.00 | 0.00 | 0.00 | 35 | 1020.1 |
| 20260506183336 | 7 | 1 | 6.4 | 16.1 | 0.00 | 0.00 | 0.00 | 35 | 1020.1 |
| 20260506182824 | 7 | 308 | 4.8 | 14.5 | 0.00 | 0.00 | 0.00 | 36 | 1020.2 |
| 20260506182331 | 7 | 346 | 8.0 | 17.7 | 0.00 | 0.00 | 0.00 | 35 | 1020.2 |
| 20260506181819 | 8 | 323 | 8.0 | 17.7 | 0.00 | 0.00 | 0.00 | 34 | 1020.2 |
| 20260506181326 | 7 | 113 | 3.2 | 12.9 | 0.00 | 0.00 | 0.00 | 37 | 1020.2 |
| 20260506180833 | 7 | 352 | 9.7 | 12.9 | 0.00 | 0.00 | 0.00 | 35 | 1020.3 |
| 20260506180324 | 7 | 316 | 6.4 | 11.3 | 0.00 | 0.00 | 0.00 | 35 | 1020.3 |
| 20260506175831 | 7 | 340 | 3.2 | 16.1 | 0.00 | 0.00 | 0.00 | 38 | 1020.3 |
| 20260506175319 | 6 | 301 | 6.4 | 17.7 | 0.00 | 0.00 | 0.00 | 38 | 1020.7 |
| 20260506174826 | 6 | 305 | 1.6 | 17.7 | 0.00 | 0.00 | 0.00 | 37 | 1020.7 |
| 20260506174333 | 6 | 330 | 9.7 | 16.1 | 0.00 | 0.00 | 0.00 | 36 | 1020.7 |
| 20260506173820 | 6 | 339 | 4.8 | 20.9 | 0.00 | 0.00 | 0.00 | 37 | 1020.8 |
| 20260506173327 | 6 | 282 | 11.3 | 20.9 | 0.00 | 0.00 | 0.00 | 38 | 1020.8 |
| 20260506172835 | 7 | 333 | 8.0 | 12.9 | 0.00 | 0.00 | 0.00 | 36 | 1020.8 |
| 20260506172321 | 6 | 247 | 8.0 | 12.9 | 0.00 | 0.00 | 0.00 | 38 | 1021.0 |
| 20260506171831 | 6 | 253 | 6.4 | 12.9 | 0.00 | 0.00 | 0.00 | 37 | 1021.0 |
| 20260506171338 | 6 | 316 | 6.4 | 16.1 | 0.00 | 0.00 | 0.00 | 38 | 1021.0 |
| 20260506170822 | 6 | 349 | 9.7 | 20.9 | 0.00 | 0.00 | 0.00 | 36 | 1021.1 |
| 20260506170329 | 6 | 265 | 14.5 | 20.9 | 0.00 | 0.00 | 0.00 | 37 | 1021.1 |
| 20260506165835 | 6 | 257 | 4.8 | 12.9 | 0.00 | 0.00 | 0.00 | 38 | 1021.1 |
| 20260506165322 | 6 | 347 | 4.8 | 12.9 | 0.00 | 0.00 | 0.00 | 38 | 1021.4 |
| 20260506164830 | 5 | 247 | 6.4 | 16.1 | 0.00 | 0.00 | 0.00 | 39 | 1021.4 |
| 20260506164337 | 5 | 326 | 8.0 | 16.1 | 0.00 | 0.00 | 0.00 | 39 | 1021.4 |
| 20260506163823 | 5 | 343 | 8.0 | 16.1 | 0.00 | 0.00 | 0.00 | 38 | 1021.5 |
| 20260506163330 | 6 | 359 | 4.8 | 11.3 | 0.00 | 0.00 | 0.00 | 37 | 1021.5 |
| 20260506162819 | 5 | 336 | 8.0 | 19.3 | 0.00 | 0.00 | 0.00 | 38 | 1021.6 |
| 20260506162327 | 5 | 270 | 6.4 | 19.3 | 0.00 | 0.00 | 0.00 | 39 | 1021.6 |
| 20260506161832 | 5 | 301 | 3.2 | 16.1 | 0.00 | 0.00 | 0.00 | 38 | 1021.6 |
| 20260506161320 | 5 | 315 | 1.6 | 12.9 | 0.00 | 0.00 | 0.00 | 38 | 1021.7 |
| 20260506160825 | 5 | 323 | 3.2 | 11.3 | 0.00 | 0.00 | 0.00 | 38 | 1021.7 |
| 20260506160333 | 5 | 335 | 3.2 | 11.3 | 0.00 | 0.00 | 0.00 | 38 | 1021.7 |
| 20260506155821 | 5 | 305 | 3.2 | 8.0 | 0.00 | 0.00 | 0.00 | 39 | 1021.7 |
| 20260506155328 | 5 | 203 | 3.2 | 9.7 | 0.00 | 0.00 | 0.00 | 41 | 1021.7 |
| 20260506154835 | 5 | 239 | 4.8 | 9.7 | 0.00 | 0.00 | 0.00 | 40 | 1021.7 |
| 20260506154326 | 5 | 240 | 3.2 | 8.0 | 0.00 | 0.00 | 0.00 | 41 | 1021.7 |
| 20260506153830 | 5 | 306 | 3.2 | 9.7 | 0.00 | 0.00 | 0.00 | 42 | 1021.7 |
| 20260506153337 | 5 | 227 | 3.2 | 9.7 | 0.00 | 0.00 | 0.00 | 42 | 1021.7 |
| 20260506152825 | 5 | 312 | 1.6 | 6.4 | 0.00 | 0.00 | 0.00 | 43 | 1021.7 |
| 20260506152332 | 5 | 257 | 1.6 | 9.7 | 0.00 | 0.00 | 0.00 | 43 | 1022.1 |
| 20260506151820 | 4 | 178 | 1.6 | 9.7 | 0.00 | 0.00 | 0.00 | 45 | 1022.1 |
| 20260506151326 | 4 | 215 | 3.2 | 6.4 | 0.00 | 0.00 | 0.00 | 45 | 1022.1 |
| 20260506150833 | 3 | 236 | 1.6 | 6.4 | 0.00 | 0.00 | 0.00 | 45 | 1022.0 |
| 20260506150319 | 3 | 356 | 3.2 | 9.7 | 0.00 | 0.00 | 0.00 | 43 | 1022.0 |
| 20260506145826 | 3 | 332 | 1.6 | 9.7 | 0.00 | 0.00 | 0.00 | 44 | 1022.0 |
| 20260506145336 | 3 | 230 | 3.2 | 12.9 | 0.00 | 0.00 | 0.00 | 45 | 1022.2 |
| 20260506144824 | 3 | 254 | 8.0 | 12.9 | 0.00 | 0.00 | 0.00 | 48 | 1022.2 |
| 20260506144331 | 3 | 195 | 4.8 | 8.0 | 0.00 | 0.00 | 0.00 | 48 | 1022.2 |
| 20260506143838 | 3 | 229 | 3.2 | 8.0 | 0.00 | 0.00 | 0.00 | 48 | 1022.2 |
| 20260506143324 | 2 | 264 | 1.6 | 4.8 | 0.00 | 0.00 | 0.00 | 50 | 1022.2 |
| 20260506142832 | 2 | 309 | 1.6 | 4.8 | 0.00 | 0.00 | 0.00 | 52 | 1022.2 |
| 20260506142319 | 2 | 250 | 1.6 | 4.8 | 0.00 | 0.00 | 0.00 | 52 | 1022.4 |
| 20260506141826 | 2 | 250 | 3.2 | 4.8 | 0.00 | 0.00 | 0.00 | 54 | 1022.4 |
| 20260506141332 | 2 | 243 | 0.0 | 4.8 | 0.00 | 0.00 | 0.00 | 55 | 1022.4 |
| 20260506140824 | 2 | 311 | 0.0 | 1.6 | 0.00 | 0.00 | 0.00 | 57 | 1022.3 |
| 20260506140332 | 1 | 311 | 0.0 | 3.2 | 0.00 | 0.00 | 0.00 | 58 | 1022.3 |
| 20260506135838 | 1 | 312 | 0.0 | 3.2 | 0.00 | 0.00 | 0.00 | 60 | 1022.3 |
| 20260506135326 | 1 | 311 | 0.0 | 3.2 | 0.00 | 0.00 | 0.00 | 61 | 1022.3 |
| 20260506134831 | 0 | 311 | 0.0 | 1.6 | 0.00 | 0.00 | 0.00 | 62 | 1022.3 |
| 20260506134319 | 0 | 311 | 0.0 | 4.8 | 0.00 | 0.00 | 0.00 | 63 | 1022.5 |
| 20260506133826 | 0 | 312 | 1.6 | 4.8 | 0.00 | 0.00 | 0.00 | 64 | 1022.5 |
| 20260506133331 | 0 | 311 | 1.6 | 4.8 | 0.00 | 0.00 | 0.00 | 65 | 1022.5 |
| 20260506132819 | 0 | 311 | 1.6 | 3.2 | 0.00 | 0.00 | 0.00 | 66 | 1022.5 |
| 20260506132325 | 0 | 311 | 0.0 | 4.8 | 0.00 | 0.00 | 0.00 | 66 | 1022.5 |
| 20260506131818 | 0 | 311 | 3.2 | 4.8 | 0.00 | 0.00 | 0.00 | 66 | 1022.5 |
| 20260506131326 | 0 | 311 | 3.2 | 6.4 | 0.00 | 0.00 | 0.00 | 67 | 1022.5 |
| 20260506130834 | 0 | 312 | 3.2 | 4.8 | 0.00 | 0.00 | 0.00 | 67 | 1022.5 |
| 20260506130319 | 0 | 311 | 3.2 | 6.4 | 0.00 | 0.00 | 0.00 | 68 | 1022.5 |
| 20260506125825 | 0 | 311 | 3.2 | 6.4 | 0.00 | 0.00 | 0.00 | 68 | 1022.5 |
| 20260506125333 | -1 | 313 | 3.2 | 6.4 | 0.00 | 0.00 | 0.00 | 68 | 1022.4 |
| 20260506124818 | -1 | 309 | 3.2 | 8.0 | 0.00 | 0.00 | 0.00 | 68 | 1022.4 |
| 20260506124327 | -1 | 337 | 4.8 | 4.8 | 0.00 | 0.00 | 0.00 | 68 | 1022.4 |
| 20260506123835 | -1 | 336 | 0.0 | 1.6 | 0.00 | 0.00 | 0.00 | 68 | 1022.1 |
| 20260506123324 | -1 | 337 | 0.0 | 3.2 | 0.00 | 0.00 | 0.00 | 68 | 1022.1 |
| 20260506122831 | -1 | 337 | 1.6 | 3.2 | 0.00 | 0.00 | 0.00 | 69 | 1022.1 |
| 20260506122317 | -1 | 337 | 3.2 | 4.8 | 0.00 | 0.00 | 0.00 | 69 | 1022.0 |
| 20260506121825 | -1 | 337 | 3.2 | 4.8 | 0.00 | 0.00 | 0.00 | 69 | 1022.0 |
| 20260506121333 | -1 | 337 | 3.2 | 4.8 | 0.00 | 0.00 | 0.00 | 68 | 1022.0 |
| 20260506120820 | -1 | 337 | 4.8 | 4.8 | 0.00 | 0.00 | 0.00 | 68 | 1021.7 |
| 20260506120329 | -1 | 337 | 4.8 | 4.8 | 0.00 | 0.00 | 0.00 | 67 | 1021.7 |
| 20260506115835 | -1 | 337 | 3.2 | 4.8 | 0.00 | 0.00 | 0.00 | 68 | 1021.7 |
| 20260506115323 | -1 | 337 | 1.6 | 4.8 | 0.00 | 0.00 | 0.00 | 67 | 1021.5 |
| 20260506114828 | -1 | 337 | 1.6 | 3.2 | 0.00 | 0.00 | 0.00 | 67 | 1021.5 |